Stations météo

réclame
Mon MeteoGroup
Ritsem, Suède (2013): Température de l'air & dewpoint: 18.01.2020 13:00:00 - 24.01.2020 13:00:00 (CET)Ritsem, Suède (2013): Vitesse du vent & gusts: 18.01.2020 13:00:00 - 24.01.2020 13:00:00 (CET)Ritsem, Suède (2013): Direction du vent: 18.01.2020 13:00:00 - 24.01.2020 13:00:00 (CET)Ritsem, Suède (2013): reduced air pressure: 18.01.2020 13:00:00 - 24.01.2020 13:00:00 (CET)Ritsem, Suède (2013): visibility: 18.01.2020 13:00:00 - 24.01.2020 13:00:00 (CET)Ritsem, Suède (2013): Quantités de précipitations: 18.01.2020 13:00:00 - 24.01.2020 13:00:00 (CET)
Date & Time tt [°C] td [°C] ff [km/h] ff [knt] fx [km/h] fx [knt] dd ppp [hPa] vv [km] rr [mm]
24.01.2020 13:00:00 - - - - - - - - - -
24.01.2020 12:00:00 -4,6 -5,8 13 7 38 20 E 986,0 17 0,0
24.01.2020 11:00:00 -4,6 -5,7 7 4 21 11 S 986,4 9 0,1
24.01.2020 10:00:00 -4,8 -6,3 5 3 14 8 S 987,4 1,5 0,2
24.01.2020 09:00:00 -4,9 -7,2 6 3 12 7 ESE 987,4 22 0,0
24.01.2020 08:00:00 -4,7 -6,2 8 4 16 9 SE 987,6 9 0,1
24.01.2020 07:00:00 -4,9 -6,0 4 2 9 5 E 988,2 4,9 0,4
24.01.2020 06:00:00 -4,8 -6,2 4 2 13 7 NE 988,1 1,4 0,1
24.01.2020 05:00:00 -5,7 -6,9 5 3 12 6 NW 988,7 33 0,0
24.01.2020 04:00:00 -4,4 -5,6 4 2 10 5 NE 988,7 2,5 0,5
24.01.2020 03:00:00 -4,3 -6,1 4 2 16 8 NE 988,8 30 0,1
24.01.2020 02:00:00 -5,4 -8,5 8 5 29 15 N 989,2 24 0,0
24.01.2020 01:00:00 -4,4 -6,5 11 6 22 12 WNW 988,9 50 0,1
24.01.2020 00:00:00 -3,0 -4,1 9 5 19 10 W 988,6 0,5 0,5
23.01.2020 23:00:00 -2,8 -3,8 5 3 16 9 W 988,7 1,4 0,4
23.01.2020 22:00:00 -2,7 -3,8 7 4 24 13 WNW 989,0 9 0,2
23.01.2020 21:00:00 -2,3 -3,3 12 6 40 21 W 989,1 12 0,2
23.01.2020 20:00:00 -2,2 -4,1 15 8 45 24 WNW 988,8 36 0,1
23.01.2020 19:00:00 -0,9 -1,6 10 5 16 9 WNW 988,1 0,5 1,5
23.01.2020 18:00:00 -0,6 -1,7 8 4 27 15 W 987,8 1,0 0,2
23.01.2020 17:00:00 -0,5 -1,2 15 8 33 18 NW 988,4 1,6 0,6
23.01.2020 16:00:00 0,1 -2,3 12 7 35 19 W 989,4 30 0,0
23.01.2020 15:00:00 -1,8 -2,4 3 2 18 10 ENE 989,4 3,4 0,3
23.01.2020 14:00:00 -1,9 -2,6 5 3 16 9 S 990,3 28 0,1
23.01.2020 13:00:00 -2,5 -3,2 3 2 20 11 SSE 991,4 3,4 0,2
23.01.2020 12:00:00 -3,3 -4,0 3 2 14 7 W 993,3 4,5 0,1
23.01.2020 11:00:00 -3,3 -4,0 4 2 16 9 SSW 994,9 1,9 0,7
23.01.2020 10:00:00 -3,1 -4,2 7 4 24 13 SSE 995,9 1,0 0,6
23.01.2020 09:00:00 -3,1 -4,4 13 7 34 19 SSE 997,0 1,2 0,5
23.01.2020 08:00:00 -3,3 -5,0 20 11 37 20 SE 999,1 0,7 0,5
23.01.2020 07:00:00 -4,2 -5,2 14 8 36 20 SSE 1001,0 1,0 0,7
23.01.2020 06:00:00 -4,3 -5,4 16 9 31 17 SE 1003,1 1,1 0,4
23.01.2020 05:00:00 -4,0 -5,1 4 2 13 7 SSE 1005,2 2,1 0,2
23.01.2020 04:00:00 -3,8 -5,2 4 2 16 9 S 1007,4 4,7 0,0
23.01.2020 03:00:00 -3,9 -6,4 6 3 14 8 ESE 1009,5 50 0,0
23.01.2020 02:00:00 -4,8 -6,5 4 2 7 4 NE 1011,1 50 0,0
23.01.2020 01:00:00 -4,7 -6,8 5 3 12 6 ESE 1012,6 12 0,0
23.01.2020 00:00:00 -3,3 -6,1 6 4 13 7 NNW 1013,4 50 0,0
22.01.2020 23:00:00 -4,2 -6,0 6 3 23 13 WNW 1013,5 50 0,1
22.01.2020 22:00:00 -3,8 -5,8 3 2 14 8 NNW 1013,8 6 0,4
22.01.2020 21:00:00 -3,9 -6,0 8 4 28 15 WNW 1014,0 13 0,0
22.01.2020 20:00:00 -3,9 -6,2 10 5 26 14 WNW 1014,6 39 0,0
22.01.2020 19:00:00 -3,7 -6,5 15 8 27 15 WNW 1014,5 3,2 0,0
22.01.2020 18:00:00 -4,0 -7,8 10 6 22 12 W 1014,6 40 0,0
22.01.2020 17:00:00 -4,3 -7,4 9 5 18 10 WNW 1015,1 50 0,0
22.01.2020 16:00:00 -5,2 -7,9 7 4 26 14 W 1015,0 14 0,0
22.01.2020 15:00:00 -4,7 -7,8 12 7 36 19 WNW 1014,8 2,4 0,0
22.01.2020 14:00:00 -5,1 -9,2 16 9 29 16 WNW 1014,2 48 0,0
22.01.2020 13:00:00 -5,6 -9,7 7 4 20 11 WNW 1013,9 20 0,0
22.01.2020 12:00:00 -4,8 -9,1 13 7 23 12 WNW 1013,1 37 0,0
22.01.2020 11:00:00 -5,0 -9,6 13 7 33 18 WNW 1012,3 20 0,0
22.01.2020 10:00:00 -5,5 -9,7 14 7 39 21 NW 1010,9 50 0,0
22.01.2020 09:00:00 -4,0 -7,6 20 11 45 24 NW 1009,2 18 0,0
22.01.2020 08:00:00 -2,8 -5,3 20 11 42 23 NW 1007,6 3,6 0,0
22.01.2020 07:00:00 -2,9 -5,2 19 11 38 21 WNW 1006,1 7 0,0
22.01.2020 06:00:00 -2,9 -4,8 16 9 29 16 WNW 1005,4 1,0 0,5
22.01.2020 05:00:00 -3,3 -5,0 13 7 25 13 NW 1004,4 1,8 0,3
22.01.2020 04:00:00 -3,9 -6,0 11 6 29 16 W 1003,5 1,8 0,1
22.01.2020 03:00:00 -4,6 -7,2 7 4 24 13 NW 1002,2 7 0,0
22.01.2020 02:00:00 -4,6 -8,7 9 5 25 14 NNW 1001,0 50 0,0
22.01.2020 01:00:00 -4,6 -7,2 6 3 18 10 NW 999,3 50 0,0
22.01.2020 00:00:00 -3,8 -5,3 10 6 27 15 WNW 997,4 7 0,2
21.01.2020 23:00:00 -3,7 -5,7 15 8 25 13 WNW 995,7 29 0,1
21.01.2020 22:00:00 -4,3 -6,0 8 4 23 12 WNW 994,8 7 0,1
21.01.2020 21:00:00 -4,2 -6,2 12 7 21 11 NW 993,9 3,9 0,1
21.01.2020 20:00:00 -4,5 -6,2 10 5 23 12 WNW 993,3 2,8 0,1
21.01.2020 19:00:00 -4,6 -6,3 12 7 29 15 WNW 993,1 1,7 0,2
21.01.2020 18:00:00 -4,9 -7,0 12 7 32 18 WNW 993,4 1,8 0,0
21.01.2020 17:00:00 -5,2 -6,9 9 5 42 23 WNW 993,2 8 0,3
21.01.2020 16:00:00 -4,5 -5,9 18 10 36 20 W 992,9 0,3 0,3
21.01.2020 15:00:00 -4,5 -5,9 12 6 31 17 WNW 992,6 6 0,5
21.01.2020 14:00:00 -4,5 -5,9 8 4 28 15 W 992,5 4,4 0,0
21.01.2020 13:00:00 -4,6 -6,0 10 5 22 12 NW 992,6 32 1,0
21.01.2020 12:00:00 -4,3 -5,4 8 4 30 16 W 992,6 0,3 1,6
21.01.2020 11:00:00 -4,3 -5,8 9 5 29 16 WNW 993,2 14 0,0
21.01.2020 10:00:00 -4,3 -5,7 14 8 46 25 WNW 993,8 12 1,1
21.01.2020 09:00:00 -3,9 -5,4 19 10 37 20 W 993,5 0,7 0,1
21.01.2020 08:00:00 -4,7 -6,8 8 4 25 14 NW 993,9 47 0,0
21.01.2020 07:00:00 -4,0 -5,0 18 10 54 29 WNW 994,2 0,5 0,6
21.01.2020 06:00:00 -3,1 -3,9 16 9 - - WNW 994,3 0,4 0,8
21.01.2020 05:00:00 -3,0 -4,0 10 5 44 24 WNW 994,1 17 0,6
21.01.2020 04:00:00 -2,0 -2,6 18 10 53 28 WNW 993,1 0,3 1,4
21.01.2020 03:00:00 -2,4 -3,2 3 2 21 11 ESE 991,8 12 0,3
21.01.2020 02:00:00 -2,1 -2,9 4 2 10 5 SE 991,5 2,5 0,5
21.01.2020 01:00:00 -1,9 -3,0 7 4 17 9 WSW 992,6 0,5 0,5
21.01.2020 00:00:00 -1,3 -2,7 4 2 18 10 W 992,5 4,5 0,0
20.01.2020 23:00:00 -1,8 -2,8 2 1 13 7 W 993,2 33 0,1
20.01.2020 22:00:00 -1,5 -3,1 4 2 43 23 WNW 993,2 15 0,1
20.01.2020 21:00:00 -0,2 -0,8 18 10 44 24 W 992,2 0,8 1,2
20.01.2020 20:00:00 0,1 -0,6 4 2 13 7 WSW 990,6 0,7 1,0
20.01.2020 19:00:00 0,3 -0,7 3 2 18 10 E 990,5 1,6 0,4
20.01.2020 18:00:00 1,0 -0,9 15 8 42 23 SW 991,3 3,7 0,3
20.01.2020 17:00:00 1,0 -0,6 16 9 - - SW 992,4 12 0,1
20.01.2020 16:00:00 0,6 -0,5 14 7 31 17 SW 994,5 10 0,1
20.01.2020 15:00:00 0,8 -0,4 13 7 25 14 SSW 996,3 9 0,1
20.01.2020 14:00:00 0,6 -0,3 14 8 26 14 S 997,7 7 0,0
20.01.2020 13:00:00 1,3 -0,2 8 4 14 7 SE 999,5 27 0,1
20.01.2020 12:00:00 1,8 -0,1 8 5 29 15 WSW 1001,2 12 0,2
20.01.2020 11:00:00 2,4 -0,7 14 8 40 22 WSW 1001,8 28 0,0
20.01.2020 10:00:00 1,7 -0,4 10 5 29 16 WSW 1002,5 11 0,1
20.01.2020 09:00:00 1,9 -0,2 12 6 33 18 WNW 1002,5 11 0,0
20.01.2020 08:00:00 2,6 -0,7 19 10 49 27 W 1001,2 16 0,0
20.01.2020 07:00:00 1,2 -0,3 6 3 18 10 WSW 1000,7 48 0,2
20.01.2020 06:00:00 -0,1 -0,7 6 4 35 19 SE 1000,9 6 0,7
20.01.2020 05:00:00 -0,9 -1,6 19 10 37 20 SSW 1001,9 1,2 1,6
20.01.2020 04:00:00 -0,6 -1,7 11 6 29 15 S 1003,1 0,7 1,1
20.01.2020 03:00:00 -2,1 -3,1 14 8 29 16 SSE 1004,7 0,5 0,9
20.01.2020 02:00:00 -2,7 -5,2 8 4 25 13 S 1007,6 3,1 0,0
20.01.2020 01:00:00 -1,6 -5,6 15 8 32 17 SW 1009,9 12 0,0
20.01.2020 00:00:00 -1,9 -4,6 3 2 14 8 SSE 1011,9 16 0,0
19.01.2020 23:00:00 -4,1 -5,2 2 1 14 8 SSW 1014,2 50 0,0
19.01.2020 22:00:00 -3,7 -4,7 5 3 15 8 NE 1014,9 50 0,0
19.01.2020 21:00:00 -7,2 -8,4 4 2 8 4 NE 1015,8 6 0,0
19.01.2020 20:00:00 -8,4 -9,7 4 2 9 5 ENE 1015,8 50 0,0
19.01.2020 19:00:00 -8,9 -10,4 4 2 - - ENE 1016,5 50 0,0
19.01.2020 18:00:00 -8,7 -10,0 4 2 9 5 ENE 1017,2 13 0,0
19.01.2020 17:00:00 -10,4 -11,9 3 1 9 5 E 1018,2 49 0,0
19.01.2020 16:00:00 -10,0 -11,6 3 2 10 5 SE 1017,8 44 0,0
19.01.2020 15:00:00 -10,4 -11,9 4 2 13 7 WSW 1017,6 39 0,0
19.01.2020 14:00:00 -10,5 -12,0 6 3 14 8 N 1017,1 50 -
19.01.2020 13:00:00 -10,3 -11,6 11 6 17 9 NNE 1016,4 50 0,0
19.01.2020 12:00:00 -9,4 -10,7 10 5 17 9 NNE 1015,9 24 0,0
19.01.2020 11:00:00 -8,7 -9,8 8 5 14 8 NNE 1013,8 8 0,0
19.01.2020 10:00:00 -8,2 -9,4 8 5 13 7 NNE 1012,7 12 0,0
19.01.2020 09:00:00 -8,9 -10,5 4 2 18 10 NE 1012,5 44 0,0
19.01.2020 08:00:00 -10,0 -11,6 10 5 14 8 N 1011,9 50 0,0
19.01.2020 07:00:00 -11,7 -13,6 4 2 16 9 NNW 1010,8 50 0,0
19.01.2020 06:00:00 -10,9 -12,6 13 7 19 10 N 1009,6 50 0,0
19.01.2020 05:00:00 -10,4 -11,7 15 8 22 12 N 1008,9 50 0,0
19.01.2020 04:00:00 -10,1 -11,6 4 2 14 7 W 1008,0 44 0,0
19.01.2020 03:00:00 -9,3 -10,6 6 3 15 8 WNW 1007,3 31 0,0
19.01.2020 02:00:00 -8,8 -10,1 8 5 13 7 W 1006,7 35 0,0
19.01.2020 01:00:00 -7,8 -9,3 5 3 16 8 N 1006,1 50 0,0
19.01.2020 00:00:00 -8,4 -10,0 6 3 14 7 NNE 1005,6 50 0,0
18.01.2020 23:00:00 -8,8 -10,4 5 3 10 6 WNW 1005,1 50 0,0
18.01.2020 22:00:00 -8,8 -10,4 5 3 12 6 NW 1004,6 50 0,0
18.01.2020 21:00:00 -7,9 -9,4 6 3 13 7 SW 1004,5 50 0,0
18.01.2020 20:00:00 -7,7 -9,2 5 3 12 6 W 1004,4 50 0,0
18.01.2020 19:00:00 -8,0 -9,6 5 3 19 11 WSW 1004,4 41 0,0
18.01.2020 18:00:00 -7,5 -9,3 6 3 17 9 S 1003,9 46 0,0
18.01.2020 17:00:00 -8,3 -9,8 8 4 18 10 SSW 1003,9 33 0,0
18.01.2020 16:00:00 -8,4 -10,3 9 5 23 12 SW 1003,7 32 0,0
18.01.2020 15:00:00 -7,5 -9,6 9 5 27 15 SSE 1003,2 50 0,0
18.01.2020 14:00:00 -7,3 -9,7 8 5 23 13 S 1003,6 50 0,0
18.01.2020 13:00:00 -8,5 -10,4 6 4 16 9 WSW 1004,1 45 0,0

tt = Température de l'air
td = dewpoint
ff = Vitesse du vent
fx = gusts
dd = Direction du vent
ppp = reduced air pressure
vv = visibility
rr = Quantités de précipitations

stations d'obs. à proximité